Location: Six Mile Lake
(44.9000°N, 79.7170°W)
Time: 12:41:56
(UTC-04:00)

ZACube-1 - Pass Details

Date: 07 July 2022
Orbit: 582 x 661 km, 97.6° (Epoch: 09 August)

Event Time Altitude Azimuth Distance (km) Brightness Sun altitude
Rises 04:50:16 0° 18° (NNE) 2,976 ? -7.8°
Reaches altitude 10° 04:52:33 10° 24° (NNE) 2,069 ? -7.5°
Maximum altitude 04:56:55 48° 99° (E) 867 ? -6.9°
Drops below altitude 10° 05:01:19 10° 173° (S) 2,072 ? -6.3°
Sets 05:03:36 0° 179° (S) 2,980 ? -6.0°
